St. Augustine, FL

4:19 AM EDT on March 24, 2017 (GMT -0400)
Saint Augustine

Weather History for KSGJ - February, 2014

Change the Weather History Date:

Monday, February 24, 2014

  Actual Average Record
Temperature  
Mean Temperature 63 °F -  
Max Temperature 66 °F 66 °F 84 °F (2012)
Min Temperature 60 °F 49 °F 26 °F (1989)
Degree Days  
Heating Degree Days 2    
Growing Degree Days 13 (Base 50)    
Moisture  
Dew Point 61 °F    
Average Humidity 92    
Maximum Humidity 100    
Minimum Humidity 79    
Precipitation  
Precipitation 0.00 in - - ()
Sea Level Pressure  
Sea Level Pressure 30.05 in    
Wind  
Wind Speed 4 mph (NNE)    
Max Wind Speed 12 mph    
Max Gust Speed -    
Visibility 5 miles    
Events      
Averages and records for this station are not official NWS values.
T = Trace of Precipitation, MM = Missing Value Source: NWS Daily Summary

Daily Weather History Graph

Daily Weather History Graph

Search for Another Location

Airport or City:

Trip Planner

Search our weather history database for the weather conditions in past years. The results will help you decide how hot, cold, wet, or windy it might be!

Date:

Astronomy

Feb. 24, 2014 Rise Set
Actual Time 6:56 AM EST 6:20 PM EST
Civil Twilight 6:32 AM EST 6:45 PM EST
Nautical Twilight 6:04 AM EST 7:12 PM EST
Astronomical Twilight 5:36 AM EST 7:40 PM EST
Moon 2:40 AM EST 1:33 PM EST
Length of Visible Light 12h 12m
Length of Day
11h 24m
Waning Crescent, 28% of the Moon is Illuminated
Feb 24
Waning Crescent
Mar 1
New
Mar 8
First Quarter
Mar 16
Full
Mar 23
Last Quarter

Hourly Weather History & Observations

Time (EST) Temp. Dew Point Humidity Pressure Visibility Wind Dir Wind Speed Gust Speed Precip Events Conditions
12:58 AM 61.0 °F 60.1 °F 97% 30.00 in - SSW 11.5 mph - 0.00 in   Overcast
1:58 AM 62.1 °F 60.1 °F 93% 29.96 in - SW 6.9 mph - N/A   Overcast
2:58 AM 63.0 °F 60.1 °F 90% 29.96 in - North - - N/A   Mostly Cloudy
3:30 AM 62.6 °F 60.8 °F 94% 29.99 in - North - - N/A   Overcast
3:39 AM 62.6 °F 60.8 °F 94% 29.99 in - NNW 4.6 mph - N/A   Overcast
3:58 AM 62.1 °F 60.1 °F 93% 29.99 in - NNW 4.6 mph - N/A   Overcast
4:26 AM 60.8 °F 60.8 °F 100% 29.99 in - Calm Calm - N/A   Scattered Clouds
4:58 AM 61.0 °F 60.1 °F 97% 30.01 in - Calm Calm - N/A   Mostly Cloudy
5:03 AM 60.8 °F 60.8 °F 100% 30.01 in - Calm Calm - N/A   Mostly Cloudy
5:11 AM 60.8 °F 60.8 °F 100% 30.01 in - Calm Calm - N/A   Overcast
5:58 AM 62.1 °F 60.1 °F 93% 30.04 in - Calm Calm - N/A   Overcast
6:58 AM 62.1 °F 60.1 °F 93% 30.04 in 4.0 mi Calm Calm - N/A   Overcast
7:58 AM 62.1 °F 61.0 °F 96% 30.05 in 4.0 mi Calm Calm - N/A   Overcast
8:39 AM 62.6 °F 60.8 °F 94% 30.06 in 4.0 mi NE 3.5 mph - N/A   Overcast
8:58 AM 63.0 °F 61.0 °F 93% 30.07 in 4.0 mi NNE 4.6 mph - N/A   Overcast
9:29 AM 62.6 °F 60.8 °F 94% 30.08 in 2.0 mi East 3.5 mph - N/A   Overcast
9:54 AM 62.6 °F 62.6 °F 100% 30.08 in 3.0 mi Calm Calm - N/A   Overcast
9:58 AM 63.0 °F 62.1 °F 97% 30.08 in 3.0 mi Calm Calm - N/A   Overcast
10:30 AM 62.6 °F 62.6 °F 100% 30.08 in 3.0 mi NNE 3.5 mph - N/A   Overcast
10:58 AM 64.0 °F 63.0 °F 96% 30.09 in 4.0 mi Calm Calm - N/A   Overcast
11:32 AM 66.2 °F 62.6 °F 88% 30.09 in 4.0 mi NNW 4.6 mph - N/A   Overcast
11:48 AM 66.2 °F 62.6 °F 88% 30.08 in 4.0 mi NNW 3.5 mph - N/A   Overcast
11:58 AM 66.9 °F 63.0 °F 87% 30.08 in 4.0 mi NNE 3.5 mph - N/A   Overcast
12:58 PM 64.9 °F 62.1 °F 90% 30.07 in 7.0 mi NNE 5.8 mph - N/A   Overcast
1:02 PM 64.4 °F 62.6 °F 94% 30.07 in 7.0 mi NNE 5.8 mph - N/A   Overcast
1:58 PM 66.0 °F 61.0 °F 84% 30.04 in 7.0 mi NNE 6.9 mph - N/A   Overcast
2:49 PM 66.2 °F 60.8 °F 83% 30.03 in 7.0 mi NE 5.8 mph - N/A   Overcast
2:58 PM 66.9 °F 61.0 °F 81% 30.03 in 7.0 mi NE 4.6 mph - N/A   Overcast
3:02 PM 66.2 °F 60.8 °F 83% 30.03 in - ENE 5.8 mph - N/A   Overcast
3:58 PM 66.9 °F 60.1 °F 79% 30.04 in 10.0 mi NE 6.9 mph - N/A   Overcast
4:58 PM 64.9 °F 60.1 °F 84% 30.05 in 10.0 mi East 5.8 mph - N/A   Overcast
5:58 PM 64.0 °F 59.0 °F 84% 30.07 in - East 4.6 mph - N/A   Mostly Cloudy
6:58 PM 62.1 °F 60.1 °F 93% 30.08 in - Calm Calm - N/A   Clear
7:58 PM 60.1 °F 57.9 °F 93% 30.09 in - Calm Calm - N/A   Mostly Cloudy
8:58 PM 60.1 °F 57.9 °F 93% 30.09 in - Calm Calm - N/A   Overcast
9:58 PM 60.1 °F 59.0 °F 96% 30.09 in - Calm Calm - N/A   Overcast
10:58 PM 60.1 °F 59.0 °F 96% 30.10 in - Calm Calm - N/A   Overcast
11:58 PM 60.1 °F 59.0 °F 96% 30.10 in - Calm Calm - N/A   Overcast